EW9560 Weather Reports


Display with metric or nautical units.
time (UTC)temp
F
wind
direction
speed
MPH
gust
MPH
rain 1hr
in
rain 24hr
in
rain mn
in
humidity
%
barometer
mb
20260905081536 53 270 0.0 1.0 0.00 0.01 0.00 94 1018.5
20260905080036 53 168 0.0 2.0 0.00 0.01 0.00 93 1018.4
20260905074536 54 157 0.0 2.0 0.00 0.01 0.00 92 1018.3
20260905073036 54 102 0.0 2.0 0.00 0.01 0.00 92 1018.1
20260905071537 55 75 1.0 2.0 0.00 0.01 0.00 92 1018.0
20260905070031 55 354 0.0 2.0 0.00 0.01 0.00 92 1017.8
20260905064531 55 41 1.0 3.0 0.00 0.01 0.01 92 1017.8
20260905063110 55 108 0.0 3.0 0.00 0.01 0.01 92 1017.8
20260905061536 55 194 0.0 3.0 0.00 0.01 0.01 92 1017.7
20260905060110 55 177 1.0 3.0 0.00 0.01 0.01 90 1017.8
20260905054535 55 249 0.0 3.0 0.00 0.01 0.01 90 1017.6
20260905053032 55 251 1.0 3.0 0.00 0.01 0.01 91 1017.5
20260905051535 54 194 2.0 3.0 0.00 0.01 0.01 91 1017.6
20260905050034 54 202 1.0 2.0 0.00 0.01 0.01 90 1017.5
20260905044532 54 205 1.0 2.0 0.00 0.01 0.01 87 1017.4
20260905043036 55 247 0.0 2.0 0.00 0.01 0.01 85 1017.3
20260905041535 56 311 0.0 2.0 0.00 0.01 0.01 83 1017.3
20260905040031 56 86 1.0 3.0 0.00 0.01 0.01 82 1017.2
20260905034533 57 333 0.0 3.0 0.00 0.01 0.01 81 1017.1
20260905033035 57 79 0.0 2.0 0.00 0.01 0.01 79 1016.9
20260905031530 58 90 0.0 2.0 0.00 0.01 0.01 79 1016.8
20260905024535 59 247 0.0 2.0 0.00 0.01 0.01 74 1016.6
20260905023037 60 132 0.0 2.0 0.00 0.01 0.01 70 1016.6
20260905021537 61 91 0.0 2.0 0.00 0.01 0.01 66 1016.5
20260905020142 62 291 3.0 7.0 0.00 0.01 0.01 65 1016.4
20260905014536 63 305 3.0 6.0 0.00 0.01 0.01 63 1016.2
20260905013033 64 306 2.0 7.0 0.00 0.01 0.01 62 1016.1
20260905011530 64 295 5.0 10.0 0.00 0.01 0.01 62 1015.9
20260905010034 64 278 5.0 9.0 0.00 0.01 0.01 63 1015.9
20260905004536 64 285 4.0 12.0 0.00 0.01 0.01 64 1015.9
20260905003038 64 301 3.0 7.0 0.00 0.01 0.01 64 1015.8
20260905001650 65 357 0.0 4.0 0.00 0.01 0.01 63 1015.7
20260905000034 65 290 0.0 6.0 0.00 0.01 0.01 64 1015.6
20260904233029 65 211 0.0 2.0 0.00 0.01 0.01 67 1015.6
20260904230032 64 209 3.0 5.0 0.00 0.01 0.01 66 1015.5
20260904223034 66 195 3.0 6.0 0.00 0.01 0.01 60 1015.4
20260904221536 67 192 2.0 4.0 0.00 0.01 0.01 61 1015.2
20260904220035 66 192 1.0 5.0 0.00 0.01 0.01 63 1015.3
20260904214535 64 174 2.0 5.0 0.00 0.01 0.01 66 1015.2
20260904213109 64 158 2.0 5.0 0.00 0.01 0.01 66 1015.2
20260904211532 64 186 2.0 4.0 0.00 0.01 0.01 64 1015.1
20260904210034 65 199 2.0 4.0 0.00 0.01 0.01 64 1015.1
20260904204610 66 219 1.0 3.0 0.00 0.01 0.01 60 1015.1
20260904203034 66 230 1.0 4.0 0.00 0.01 0.01 60 1015.2
20260904201529 64 319 0.0 4.0 0.00 0.01 0.01 62 1015.3
20260904200033 64 309 1.0 3.0 0.00 0.01 0.01 64 1015.4
20260904194530 63 346 0.0 3.0 0.00 0.01 0.01 65 1015.6
20260904193152 62 354 1.0 4.0 0.00 0.01 0.01 66 1015.7
20260904191536 62 15 1.0 5.0 0.00 0.01 0.01 68 1015.8
20260904190035 61 246 0.0 3.0 0.00 0.01 0.01 71 1016.0
20260904184534 60 202 1.0 5.0 0.00 0.01 0.01 73 1016.0
20260904183036 59 179 1.0 3.0 0.00 0.01 0.01 78 1016.0
20260904181644 58 163 1.0 3.0 0.00 0.01 0.01 80 1015.9
20260904180034 57 191 1.0 3.0 0.00 0.01 0.01 80 1015.9
20260904174543 57 194 2.0 4.0 0.00 0.01 0.01 79 1016.0
20260904173030 58 208 2.0 5.0 0.00 0.01 0.01 80 1015.9
20260904171607 58 239 1.0 4.0 0.00 0.01 0.01 81 1015.9
20260904170035 57 224 1.0 5.0 0.00 0.01 0.01 84 1015.9
20260904164535 57 223 1.0 4.0 0.00 0.01 0.01 85 1015.8
20260904163034 56 216 1.0 4.0 0.00 0.01 0.01 87 1015.8
20260904161532 56 227 1.0 3.0 0.00 0.01 0.01 88 1015.8
20260904160033 56 193 0.0 4.0 0.00 0.01 0.01 92 1015.8
20260904154535 54 161 1.0 4.0 0.00 0.01 0.01 96 1015.7
20260904151534 52 202 1.0 3.0 0.01 0.01 0.01 97 1015.4
20260904150029 51 200 1.0 3.0 0.01 0.01 0.01 98 1015.3
20260904144536 51 190 2.0 3.0 0.01 0.01 0.00 98 1015.2
20260904143039 50 220 2.0 3.0 0.00 0.00 0.00 98 1015.0
20260904140031 50 135 0.0 2.0 0.00 0.00 0.00 97 1014.8
20260904131536 50 90 0.0 0.0 0.00 0.01 0.00 97 1014.3
20260904130034 50 90 0.0 0.0 0.00 0.01 0.00 97 1014.1
20260904124530 50 90 0.0 0.0 0.00 0.01 0.00 97 1014.1
20260904123035 50 90 0.0 1.0 0.00 0.01 0.00 97 1014.0
20260904120033 50 90 0.0 0.0 0.00 0.01 0.00 97 1013.9
20260904114532 50 90 0.0 0.0 0.00 0.01 0.00 97 1013.7
20260904113036 50 90 0.0 0.0 0.00 0.01 0.00 97 1013.7
20260904111642 50 90 0.0 0.0 0.00 0.01 0.00 97 1013.6
20260904110034 50 90 0.0 0.0 0.00 0.01 0.00 97 1013.5
20260904104536 50 90 0.0 0.0 0.00 0.01 0.00 96 1013.3
20260904103032 50 90 0.0 0.0 0.00 0.01 0.00 96 1013.2
20260904101609 50 90 0.0 2.0 0.00 0.01 0.00 96 1013.0
20260904093034 50 90 0.0 2.0 0.00 0.01 0.00 96 1012.8
20260904091530 50 109 0.0 2.0 0.00 0.01 0.00 96 1012.8
20260904090031 50 224 0.0 3.0 0.00 0.01 0.00 95 1012.8
20260904084536 49 183 0.0 3.0 0.00 0.01 0.00 95 1012.7